Location: Florida Caverns State Park
(30.8073°N, 85.2161°W)
Time: 19:33:08
(UTC-04:00)

Hubble Space Telescope - Visible Passes

Search period start: 22 October 2019 00:00
Search period end: 01 November 2019 00:00
Orbit: 536 x 540 km, 28.5° (Epoch: 21 October)

Date Brightness Start Highest point End Pass type
(mag) Time Alt. Az. Time Alt. Az. Time Alt. Az.
27 Oct 3.5 05:47:15 10° SSE 05:47:59 11° SSE 05:49:02 10° SE visible
27 Oct 2.3 07:24:58 10° SW 07:28:41 33° SSE 07:32:23 10° E visible
28 Oct 3.4 05:37:44 14° SSE 05:37:44 14° SSE 05:39:30 10° ESE visible
28 Oct 1.9 07:14:12 10° SW 07:18:03 38° SSE 07:21:54 10° E visible
29 Oct 3.5 05:28:07 15° SE 05:28:07 15° SE 05:29:26 10° ESE visible
29 Oct 1.6 07:03:30 10° WSW 07:07:27 44° SSE 07:11:23 10° E visible
30 Oct 3.7 05:18:25 14° ESE 05:18:25 14° ESE 05:19:11 10° ESE visible
30 Oct 1.4 06:53:46 16° WSW 06:56:51 50° S 07:00:50 10° E visible
31 Oct 4.0 05:08:39 11° ESE 05:08:39 11° ESE 05:08:49 10° ESE visible
31 Oct 1.2 06:43:59 24° WSW 06:46:15 55° S 06:50:17 10° E visible
